Change the Weather History Date:

Tuesday, February 12, 2013

  Actual Average Record
Temperature  
Mean Temperature 33 °F -  
Max Temperature 39 °F 31 °F 62 °F (1984)
Min Temperature 27 °F 17 °F -18 °F (2014)
Degree Days  
Heating Degree Days 32    
Moisture  
Dew Point 24 °F    
Average Humidity 72    
Maximum Humidity 85    
Minimum Humidity 62    
Precipitation  
Precipitation 0.03 in - - ()
Sea Level Pressure  
Sea Level Pressure 30.00 in    
Wind  
Wind Speed 13 mph (West)    
Max Wind Speed 21 mph    
Max Gust Speed 26 mph    
Visibility 10 miles    
Events      
Averages and records for this station are not official NWS values.
T = Trace of Precipitation, MM = Missing Value Source: NWS Daily Summary

Daily Weather History Graph

Daily Weather History Graph

Search for Another Location

Airport or City:

Trip Planner

Search our weather history database for the weather conditions in past years. The results will help you decide how hot, cold, wet, or windy it might be!

Date:

Astronomy

Feb. 12, 2013 Rise Set
Actual Time 7:32 AM EST 6:05 PM EST
Civil Twilight 7:04 AM EST 6:34 PM EST
Nautical Twilight 6:31 AM EST 7:06 PM EST
Astronomical Twilight 6:00 AM EST 7:38 PM EST
Moon 8:27 AM EST (2/12) 9:07 PM EST (2/12)
Length of Visible Light 11h 29m
Length of Day
10h 33m
Waxing Crescent, 7% of the Moon is Illuminated
Feb 12
Waxing Crescent
Feb 17
First Quarter
Feb 25
Full
Mar 4
Last Quarter
Mar 11
New

Hourly Weather History & Observations

Time (EST) Temp. Windchill Dew Point Humidity Pressure Visibility Wind Dir Wind Speed Gust Speed Precip Events Conditions
12:24 AM 32.0 °F 23.0 °F 23.0 °F 69% 29.95 in 10.0 mi West 11.5 mph 21.9 mph N/A   Overcast
12:53 AM 32.0 °F 20.1 °F 23.0 °F 69% 29.98 in 10.0 mi West 19.6 mph 26.5 mph N/A   Overcast
1:05 AM 32.0 °F 20.1 °F 21.2 °F 64% 29.97 in 10.0 mi West 19.6 mph 25.3 mph N/A   Overcast
1:51 AM 30.2 °F 17.4 °F 23.0 °F 75% 29.98 in 10.0 mi West 20.7 mph - N/A   Overcast
1:53 AM 30.9 °F 19.4 °F 23.0 °F 72% 29.99 in 10.0 mi West 17.3 mph - N/A   Overcast
2:46 AM 30.2 °F 17.8 °F 21.2 °F 69% 29.99 in 10.0 mi West 19.6 mph 25.3 mph N/A   Overcast
2:53 AM 30.9 °F 19.1 °F 21.9 °F 69% 30.01 in 10.0 mi West 18.4 mph 25.3 mph N/A   Overcast
3:53 AM 30.9 °F 19.4 °F 21.9 °F 69% 30.02 in 10.0 mi West 17.3 mph - N/A   Overcast
4:20 AM 30.2 °F 19.3 °F 21.2 °F 69% 30.01 in 10.0 mi West 15.0 mph - N/A   Overcast
4:53 AM 30.9 °F 21.7 °F 23.0 °F 72% 30.03 in 10.0 mi West 11.5 mph - N/A   Overcast
5:53 AM 30.9 °F 21.2 °F 23.0 °F 72% 30.04 in 10.0 mi West 12.7 mph - N/A   Overcast
6:53 AM 30.9 °F 22.2 °F 23.0 °F 72% 30.06 in 10.0 mi West 10.4 mph 19.6 mph N/A   Overcast
7:53 AM 30.0 °F 20.5 °F 21.9 °F 72% 30.08 in 10.0 mi West 11.5 mph - N/A   Overcast
8:53 AM 30.0 °F 19.1 °F 23.0 °F 75% 30.09 in 10.0 mi WSW 15.0 mph - N/A   Overcast
9:53 AM 30.9 °F 19.8 °F 21.9 °F 69% 30.10 in - West 16.1 mph - N/A   Overcast
10:53 AM 30.9 °F 21.2 °F 21.9 °F 69% 30.09 in 10.0 mi West 12.7 mph - 0.03 in   Overcast
11:53 AM 33.1 °F 25.5 °F 23.0 °F 66% 30.07 in 10.0 mi West 9.2 mph - N/A   Overcast
12:53 PM 33.1 °F 26.1 °F 24.1 °F 70% 30.04 in 10.0 mi WSW 8.1 mph - N/A   Mostly Cloudy
1:00 PM 33.8 °F 25.8 °F 24.8 °F 70% 30.02 in 10.0 mi WSW 10.4 mph - N/A   Scattered Clouds
1:53 PM 36.0 °F 29.6 °F 24.1 °F 62% 29.99 in 10.0 mi WSW 8.1 mph - N/A   Partly Cloudy
2:53 PM 37.0 °F 29.3 °F 25.0 °F 62% 29.99 in 10.0 mi WSW 11.5 mph - N/A   Clear
3:53 PM 39.0 °F 31.4 °F 27.0 °F 62% 29.99 in 10.0 mi WSW 12.7 mph - N/A   Clear
4:53 PM 37.9 °F 30.9 °F 27.0 °F 65% 29.98 in 10.0 mi WSW 10.4 mph - N/A   Clear
5:53 PM 35.1 °F 28.6 °F 27.0 °F 72% 29.98 in 10.0 mi West 8.1 mph - N/A   Clear
6:53 PM 33.1 °F 28.7 °F 27.0 °F 78% 29.97 in 10.0 mi WNW 4.6 mph - N/A   Clear
7:53 PM 33.1 °F 30.0 °F 27.0 °F 78% 29.96 in 10.0 mi NW 3.5 mph - N/A   Clear
8:53 PM 30.0 °F 23.2 °F 25.0 °F 82% 29.95 in 10.0 mi WNW 6.9 mph - N/A   Clear
9:53 PM 28.9 °F 22.8 °F 25.0 °F 85% 29.95 in 10.0 mi WNW 5.8 mph - N/A   Clear
10:53 PM 27.0 °F 21.6 °F 23.0 °F 85% 29.94 in 9.0 mi West 4.6 mph - N/A   Clear
11:53 PM 28.0 °F 24.2 °F 24.1 °F 85% 29.93 in 8.0 mi WSW 3.5 mph - N/A   Clear